2020/11/26 23:29:50+0000,-41.33,-46.74,-35.01,-52.00,-53.31,-57.60
2020/11/26 23:30:42+0000,-42.04,-46.76,-36.16,-50.43,-53.49,-57.28
2020/11/26 23:31:41+0000,-41.78,-45.80,-36.21,-50.81,-52.84,-57.12
2020/11/26 23:32:33+0000,-42.58,-45.90,-35.96,-53.12,-52.93,-57.14
2020/11/26 23:33:25+0000,-40.06,-45.14,-36.05,-52.38,-53.24,-57.68
2020/11/26 23:34:17+0000,-42.09,-43.65,-36.25,-50.50,-54.78,-57.60
2020/11/26 23:35:09+0000,-42.28,-45.31,-36.39,-51.51,-53.60,-56.95
2020/11/26 23:36:01+0000,-41.50,-45.67,-36.04,-52.29,-54.39,-57.13
2020/11/26 23:36:53+0000,-41.56,-47.50,-35.72,-52.32,-54.27,-57.62
2020/11/26 23:37:45+0000,-42.24,-47.76,-36.23,-51.64,-54.28,-57.82
2020/11/26 23:38:37+0000,-42.34,-46.83,-35.94,-51.27,-54.56,-57.44
2020/11/26 23:39:29+0000,-42.03,-43.84,-35.86,-51.39,-54.22,-57.42
2020/11/26 23:40:22+0000,-42.15,-47.17,-35.80,-51.13,-55.26,-57.66
2020/11/26 23:41:24+0000,-41.66,-46.91,-36.15,-50.77,-54.41,-57.26
2020/11/26 23:42:16+0000,-40.84,-45.84,-36.32,-50.88,-54.66,-57.08
2020/11/26 23:43:08+0000,-41.99,-44.64,-36.67,-50.95,-52.85,-57.30
2020/11/26 23:44:00+0000,-41.54,-47.82,-36.05,-51.28,-54.92,-56.95
2020/11/26 23:44:52+0000,-39.78,-46.86,-36.95,-51.36,-53.98,-57.46
2020/11/26 23:45:45+0000,-40.88,-45.69,-35.67,-52.00,-54.30,-56.77
2020/11/26 23:46:37+0000,-36.10,-45.01,-35.97,-50.95,-55.14,-57.62
2020/11/26 23:47:29+0000,-41.34,-46.76,-36.53,-48.86,-54.66,-57.33
2020/11/26 23:48:21+0000,-41.94,-47.68,-35.80,-49.02,-55.01,-57.47
2020/11/26 23:49:13+0000,-42.57,-47.76,-36.50,-51.40,-53.35,-57.26
2020/11/26 23:50:05+0000,-41.98,-47.78,-35.90,-53.28,-54.33,-57.78
2020/11/26 23:51:02+0000,-40.74,-46.09,-35.36,-49.08,-54.19,-57.37
2020/11/26 23:51:54+0000,-41.48,-46.28,-36.36,-52.16,-54.61,-57.41
2020/11/26 23:52:46+0000,-41.02,-44.94,-35.18,-51.28,-54.67,-57.57
2020/11/26 23:53:39+0000,-40.50,-47.13,-35.16,-52.38,-54.35,-56.97
2020/11/26 23:54:31+0000,-40.34,-47.01,-36.16,-51.14,-54.06,-56.93
2020/11/26 23:55:23+0000,-40.57,-46.37,-36.25,-51.26,-54.42,-57.28
2020/11/26 23:56:15+0000,-41.18,-46.01,-35.89,-49.68,-54.40,-57.34
2020/11/26 23:57:07+0000,-41.32,-46.86,-35.99,-49.74,-54.43,-57.28
2020/11/26 23:57:59+0000,-40.18,-46.44,-36.00,-50.37,-54.60,-57.54
2020/11/26 23:58:51+0000,-41.30,-48.24,-36.26,-50.76,-54.39,-57.60
2020/11/26 23:59:43+0000,-40.52,-46.80,-35.56,-49.20,-54.30,-57.38
2020/11/27 00:00:35+0000,-40.32,-46.94,-35.85,-52.27,-54.31,-57.28
2020/11/27 00:01:35+0000,-40.97,-45.02,-36.09,-50.80,-53.25,-57.46
2020/11/27 00:02:27+0000,-41.12,-45.51,-36.31,-49.66,-54.65,-57.87
2020/11/27 00:03:20+0000,-41.03,-46.74,-35.87,-51.95,-53.08,-57.26
2020/11/27 00:04:12+0000,-41.95,-47.02,-37.05,-50.62,-54.70,-57.23
2020/11/27 00:05:04+0000,-40.76,-46.17,-35.45,-52.29,-53.20,-57.39
2020/11/27 00:05:56+0000,-41.17,-45.44,-36.61,-52.06,-53.89,-57.40
2020/11/27 00:06:48+0000,-40.76,-45.78,-36.22,-53.43,-53.14,-57.48
2020/11/27 00:07:40+0000,-40.76,-44.73,-35.58,-51.32,-55.20,-57.22
2020/11/27 00:08:32+0000,-41.17,-44.05,-36.23,-50.55,-53.57,-57.18
2020/11/27 00:09:24+0000,-41.14,-48.67,-35.42,-47.48,-53.28,-57.55
2020/11/27 00:10:16+0000,-40.31,-46.89,-36.44,-50.57,-55.58,-57.66
2020/11/27 00:11:16+0000,-40.41,-46.76,-36.56,-49.54,-53.58,-57.91
2020/11/27 00:12:08+0000,-39.44,-47.89,-36.15,-49.71,-55.58,-57.29
2020/11/27 00:13:00+0000,-40.30,-45.96,-35.91,-51.64,-54.51,-57.45
2020/11/27 00:13:52+0000,-41.32,-48.10,-35.49,-51.25,-54.48,-57.60
2020/11/27 00:14:44+0000,-41.53,-46.96,-35.36,-51.08,-55.13,-57.81
2020/11/27 00:15:36+0000,-40.94,-48.49,-36.44,-51.91,-52.93,-57.63
2020/11/27 00:16:28+0000,-41.71,-46.41,-36.51,-51.25,-53.74,-57.17
2020/11/27 00:17:20+0000,-41.90,-47.59,-36.28,-53.03,-53.55,-57.84
2020/11/27 00:18:12+0000,-41.09,-46.86,-36.64,-50.78,-55.00,-57.26
2020/11/27 00:19:04+0000,-41.11,-46.88,-34.50,-53.55,-54.35,-57.37
2020/11/27 00:19:56+0000,-40.67,-45.67,-36.54,-51.89,-55.07,-57.99
2020/11/27 00:20:49+0000,-40.80,-46.37,-35.91,-46.58,-53.63,-57.71
2020/11/27 00:21:46+0000,-41.44,-45.87,-36.38,-51.41,-53.36,-57.33
2020/11/27 00:22:38+0000,-41.60,-47.50,-35.25,-50.38,-53.33,-57.86
2020/11/27 00:23:30+0000,-41.42,-45.85,-35.88,-50.42,-54.79,-57.12
2020/11/27 00:24:22+0000,-40.36,-47.63,-35.71,-52.87,-54.37,-57.92
2020/11/27 00:25:14+0000,-40.57,-47.26,-36.54,-51.13,-55.05,-58.40
2020/11/27 00:26:06+0000,-41.49,-46.62,-36.84,-51.78,-53.31,-57.35
2020/11/27 00:26:58+0000,-42.32,-47.26,-36.46,-50.53,-54.92,-57.44
2020/11/27 00:27:50+0000,-41.85,-46.83,-35.39,-53.56,-54.49,-57.02
2020/11/27 00:28:42+0000,-41.62,-44.90,-35.75,-51.92,-55.32,-57.21
2020/11/27 00:29:34+0000,-41.19,-45.64,-35.29,-53.43,-53.53,-57.07
2020/11/27 00:30:27+0000,-42.25,-45.57,-34.67,-51.70,-54.00,-57.64
2020/11/27 00:31:24+0000,-41.61,-45.33,-35.92,-50.65,-54.59,-56.69
2020/11/27 00:32:16+0000,-41.59,-45.80,-36.74,-50.29,-55.12,-57.13
2020/11/27 00:33:08+0000,-40.00,-45.78,-36.34,-51.61,-54.95,-57.31
2020/11/27 00:34:00+0000,-41.25,-46.67,-36.10,-51.49,-54.92,-57.10
2020/11/27 00:34:52+0000,-41.28,-47.22,-35.63,-49.76,-54.59,-54.99
2020/11/27 00:35:44+0000,-42.23,-46.39,-35.98,-49.87,-54.08,-56.91
2020/11/27 00:36:36+0000,-41.27,-44.75,-35.57,-49.66,-52.23,-57.02
2020/11/27 00:37:28+0000,-41.17,-47.94,-35.91,-49.62,-53.13,-56.92
2020/11/27 00:38:20+0000,-42.08,-46.83,-35.58,-51.90,-52.22,-56.69
2020/11/27 00:39:12+0000,-40.99,-45.24,-35.63,-49.86,-53.40,-56.70
2020/11/27 00:40:05+0000,-41.79,-44.34,-35.46,-51.26,-52.71,-56.50
2020/11/27 00:41:05+0000,-41.63,-44.98,-35.95,-51.16,-54.22,-56.85
2020/11/27 00:41:57+0000,-41.00,-46.21,-36.24,-49.34,-53.87,-56.82
2020/11/27 00:42:49+0000,-42.04,-45.90,-36.25,-51.34,-54.56,-57.31
2020/11/27 00:43:42+0000,-41.38,-46.24,-36.05,-50.74,-54.65,-57.21
2020/11/27 00:44:34+0000,-40.99,-44.41,-35.86,-48.97,-54.41,-57.14
2020/11/27 00:45:26+0000,-40.41,-44.61,-34.67,-49.21,-54.17,-57.13
2020/11/27 00:46:18+0000,-40.38,-43.87,-35.80,-50.86,-54.03,-57.56
2020/11/27 00:47:10+0000,-40.13,-45.64,-35.76,-51.17,-55.06,-57.00
2020/11/27 00:48:02+0000,-39.97,-44.93,-36.06,-50.31,-54.94,-57.02
2020/11/27 00:48:54+0000,-38.93,-46.33,-34.32,-50.94,-54.88,-57.24
2020/11/27 00:49:46+0000,-40.62,-45.37,-34.96,-50.67,-53.68,-57.13
2020/11/27 00:50:38+0000,-39.01,-45.63,-34.78,-50.97,-55.41,-57.11
2020/11/27 00:51:36+0000,-40.37,-46.04,-34.98,-51.50,-54.39,-56.87
2020/11/27 00:52:28+0000,-39.84,-45.98,-34.75,-51.27,-55.03,-57.15
2020/11/27 00:53:20+0000,-40.07,-45.90,-34.20,-50.60,-54.73,-56.66
2020/11/27 00:54:12+0000,-39.52,-45.49,-34.92,-51.57,-54.45,-56.70
2020/11/27 00:55:04+0000,-37.22,-44.60,-35.06,-50.91,-53.92,-56.36
2020/11/27 00:55:56+0000,-39.65,-46.53,-34.24,-51.17,-54.74,-56.53
2020/11/27 00:56:48+0000,-39.52,-45.13,-34.17,-51.16,-54.56,-57.20
2020/11/27 00:57:40+0000,-37.17,-43.87,-34.88,-51.33,-54.22,-56.63
2020/11/27 00:58:32+0000,-39.87,-43.87,-34.46,-51.53,-54.03,-57.04
2020/11/27 00:59:24+0000,-40.39,-44.42,-34.70,-51.06,-55.06,-56.61
2020/11/27 01:00:17+0000,-39.80,-46.47,-34.44,-50.89,-55.18,-56.18
2020/11/27 01:01:19+0000,-40.20,-46.05,-36.43,-51.12,-54.62,-56.54
2020/11/27 01:02:11+0000,-39.90,-47.27,-36.45,-50.98,-54.70,-56.86
2020/11/27 01:03:03+0000,-39.04,-45.52,-35.81,-50.61,-55.08,-56.56
2020/11/27 01:03:55+0000,-39.81,-44.57,-35.37,-51.04,-54.19,-57.18
2020/11/27 01:04:47+0000,-40.20,-44.33,-35.57,-50.90,-55.11,-57.04
2020/11/27 01:05:39+0000,-37.82,-44.85,-35.36,-50.43,-53.45,-56.76
2020/11/27 01:06:31+0000,-38.01,-44.90,-35.76,-51.00,-53.22,-56.59
2020/11/27 01:07:23+0000,-39.13,-46.08,-35.64,-51.23,-52.95,-56.54
2020/11/27 01:08:15+0000,-39.32,-46.53,-35.61,-50.91,-54.82,-57.45
2020/11/27 01:09:07+0000,-39.35,-45.97,-34.82,-51.57,-54.96,-55.98
2020/11/27 01:10:00+0000,-39.40,-45.78,-35.71,-51.08,-54.38,-57.04
2020/11/27 01:11:00+0000,-39.22,-49.19,-34.64,-51.15,-52.89,-57.28
2020/11/27 01:11:52+0000,-39.37,-50.65,-35.32,-51.40,-54.95,-57.03
2020/11/27 01:12:44+0000,-40.56,-50.15,-35.68,-49.98,-54.16,-56.63
2020/11/27 01:13:36+0000,-40.30,-50.67,-35.83,-50.73,-54.55,-56.99
2020/11/27 01:14:28+0000,-39.84,-47.92,-36.15,-50.83,-54.69,-56.94
2020/11/27 01:15:20+0000,-39.53,-50.39,-35.56,-51.55,-54.94,-56.70
2020/11/27 01:16:12+0000,-39.84,-49.54,-36.20,-51.39,-53.14,-56.86
2020/11/27 01:17:04+0000,-39.81,-49.17,-35.62,-51.02,-53.12,-56.89
2020/11/27 01:17:56+0000,-38.07,-49.84,-35.26,-50.24,-54.15,-56.92
2020/11/27 01:18:48+0000,-37.41,-49.25,-36.28,-50.83,-54.41,-55.79
2020/11/27 01:19:40+0000,-40.07,-49.71,-35.69,-50.50,-53.30,-56.62
2020/11/27 01:20:32+0000,-40.43,-48.47,-36.06,-50.58,-52.69,-56.24
2020/11/27 01:21:35+0000,-40.45,-49.49,-35.84,-51.07,-52.31,-57.10
2020/11/27 01:22:27+0000,-36.43,-49.26,-36.08,-51.35,-52.71,-56.84
2020/11/27 01:23:19+0000,-37.40,-49.14,-35.47,-50.75,-54.07,-56.44
2020/11/27 01:24:11+0000,-40.24,-49.80,-35.51,-51.17,-52.89,-56.65
2020/11/27 01:25:03+0000,-39.16,-50.04,-35.54,-50.32,-53.00,-56.59
2020/11/27 01:25:55+0000,-39.03,-49.71,-35.39,-49.61,-52.92,-56.18
2020/11/27 01:26:47+0000,-40.83,-49.89,-36.08,-50.88,-52.52,-56.46
2020/11/27 01:27:39+0000,-40.62,-50.47,-35.61,-50.36,-53.27,-56.73
2020/11/27 01:28:31+0000,-40.38,-49.45,-34.74,-50.40,-53.78,-56.55
2020/11/27 01:29:23+0000,-37.84,-49.88,-35.12,-50.54,-52.29,-56.96
2020/11/27 01:30:16+0000,-40.14,-49.65,-35.76,-51.22,-54.29,-56.80
2020/11/27 01:31:17+0000,-40.00,-48.51,-35.84,-50.58,-54.95,-55.95
2020/11/27 01:32:09+0000,-40.17,-48.34,-35.29,-51.50,-53.80,-56.42
2020/11/27 01:33:01+0000,-40.83,-50.32,-35.36,-51.08,-52.96,-56.54
2020/11/27 01:33:53+0000,-40.53,-49.97,-35.87,-51.18,-53.57,-56.58
2020/11/27 01:34:45+0000,-40.47,-48.65,-35.29,-50.93,-53.68,-57.20
2020/11/27 01:35:37+0000,-39.55,-50.73,-36.12,-50.88,-53.51,-56.89
2020/11/27 01:36:29+0000,-40.82,-50.59,-35.69,-50.96,-54.05,-56.70
2020/11/27 01:37:21+0000,-40.51,-50.66,-35.21,-50.96,-53.94,-57.16
2020/11/27 01:38:13+0000,-38.91,-49.32,-35.09,-50.72,-54.06,-56.31
2020/11/27 01:39:05+0000,-37.88,-46.66,-36.01,-51.32,-54.15,-56.13
2020/11/27 01:39:57+0000,-40.30,-49.36,-36.14,-50.78,-52.97,-56.35
2020/11/27 01:40:49+0000,-40.22,-49.79,-35.89,-51.23,-53.44,-56.55
2020/11/27 01:41:54+0000,-39.50,-49.85,-35.63,-51.04,-53.18,-56.25
2020/11/27 01:42:46+0000,-39.76,-50.22,-35.69,-50.87,-53.58,-57.14
2020/11/27 01:43:38+0000,-38.02,-50.33,-36.30,-51.06,-54.06,-57.09
2020/11/27 01:44:30+0000,-39.77,-49.31,-36.59,-51.34,-52.46,-56.98
2020/11/27 01:45:22+0000,-38.83,-50.91,-36.65,-51.35,-53.88,-57.14
2020/11/27 01:46:14+0000,-39.13,-50.74,-36.52,-51.32,-53.27,-56.74
2020/11/27 01:47:06+0000,-39.80,-51.18,-36.67,-51.35,-53.97,-57.77
2020/11/27 01:47:58+0000,-39.38,-48.01,-36.07,-50.78,-52.97,-57.39
2020/11/27 01:48:50+0000,-39.38,-49.94,-36.59,-51.34,-53.71,-56.79
2020/11/27 01:49:43+0000,-40.04,-51.41,-36.12,-50.99,-53.13,-57.07
2020/11/27 01:50:35+0000,-40.36,-48.67,-36.23,-50.32,-54.50,-57.78
2020/11/27 01:51:39+0000,-39.22,-50.92,-36.71,-50.91,-54.39,-57.60
2020/11/27 01:52:31+0000,-41.16,-50.91,-36.31,-50.68,-54.87,-57.17
2020/11/27 01:53:23+0000,-40.54,-51.69,-36.79,-51.70,-54.73,-57.01
2020/11/27 01:54:15+0000,-41.34,-51.76,-36.61,-51.79,-55.05,-57.13
2020/11/27 01:55:07+0000,-40.61,-52.51,-36.61,-51.60,-54.34,-56.84
2020/11/27 01:55:59+0000,-40.54,-49.44,-36.76,-51.26,-54.70,-56.84
2020/11/27 01:56:51+0000,-39.23,-51.09,-36.03,-50.79,-54.47,-57.15
2020/11/27 01:57:43+0000,-41.33,-50.92,-36.28,-50.62,-54.64,-57.88
2020/11/27 01:58:35+0000,-41.05,-48.88,-36.55,-50.85,-53.93,-57.34
2020/11/27 01:59:27+0000,-39.87,-49.50,-37.24,-51.20,-54.40,-56.98
2020/11/27 02:00:19+0000,-40.85,-50.08,-36.38,-51.02,-53.90,-56.58
2020/11/27 02:01:21+0000,-37.73,-52.01,-36.62,-52.01,-53.96,-56.98
2020/11/27 02:02:13+0000,-41.15,-50.55,-35.98,-50.76,-54.28,-56.68
2020/11/27 02:03:05+0000,-40.54,-52.38,-36.35,-51.27,-54.10,-57.36
2020/11/27 02:03:57+0000,-39.37,-45.83,-35.88,-49.86,-53.83,-56.84
2020/11/27 02:04:50+0000,-34.32,-48.68,-36.03,-51.53,-53.81,-56.96
2020/11/27 02:05:42+0000,-41.05,-51.44,-36.02,-51.38,-54.18,-57.05
2020/11/27 02:06:34+0000,-40.90,-49.01,-36.16,-51.75,-54.85,-56.76
2020/11/27 02:07:26+0000,-40.37,-49.50,-36.21,-50.48,-54.57,-56.63
2020/11/27 02:08:18+0000,-39.67,-51.39,-36.44,-52.35,-53.94,-57.14
2020/11/27 02:09:10+0000,-39.97,-51.76,-36.80,-51.44,-53.65,-56.94
2020/11/27 02:10:02+0000,-40.80,-49.66,-36.19,-52.10,-54.09,-56.48
2020/11/27 02:11:03+0000,-39.86,-49.21,-36.30,-50.59,-53.99,-56.77
2020/11/27 02:11:55+0000,-40.87,-48.84,-36.40,-51.60,-54.55,-56.61
2020/11/27 02:12:47+0000,-39.31,-51.14,-36.02,-51.34,-53.57,-56.79
2020/11/27 02:13:39+0000,-39.89,-51.13,-36.50,-51.86,-54.62,-56.88
2020/11/27 02:14:31+0000,-40.49,-49.33,-36.27,-51.24,-54.35,-57.24
2020/11/27 02:15:23+0000,-39.98,-49.83,-35.96,-51.62,-54.33,-56.86
2020/11/27 02:16:15+0000,-40.97,-50.77,-36.22,-51.63,-53.99,-56.55
2020/11/27 02:17:07+0000,-39.78,-51.95,-36.80,-50.90,-53.99,-57.06
2020/11/27 02:17:59+0000,-40.04,-51.65,-36.20,-51.32,-53.97,-57.60
2020/11/27 02:18:51+0000,-40.73,-51.84,-36.30,-51.77,-53.89,-56.70
2020/11/27 02:19:43+0000,-39.92,-50.98,-36.42,-51.54,-53.20,-56.66
2020/11/27 02:20:35+0000,-40.72,-52.14,-36.04,-51.26,-54.08,-56.64
2020/11/27 02:21:44+0000,-40.82,-51.19,-36.59,-51.44,-54.24,-56.30
2020/11/27 02:22:37+0000,-40.11,-52.41,-36.28,-51.08,-54.55,-57.26
2020/11/27 02:23:29+0000,-39.92,-49.05,-36.45,-50.88,-53.82,-56.78
2020/11/27 02:24:21+0000,-39.22,-51.87,-36.42,-51.61,-53.79,-56.71
2020/11/27 02:25:13+0000,-40.39,-50.71,-35.77,-50.82,-53.26,-56.84
2020/11/27 02:26:05+0000,-40.99,-48.94,-36.29,-51.07,-53.06,-56.70
2020/11/27 02:26:57+0000,-40.67,-48.99,-36.04,-51.26,-54.43,-56.81
2020/11/27 02:27:49+0000,-40.50,-50.69,-36.09,-50.93,-54.09,-56.91
2020/11/27 02:28:41+0000,-40.45,-51.43,-36.12,-51.48,-53.53,-57.22
2020/11/27 02:29:33+0000,-41.11,-49.19,-36.26,-50.74,-53.62,-57.29
2020/11/27 02:30:25+0000,-40.94,-48.73,-35.68,-51.26,-53.18,-56.47
2020/11/27 02:31:29+0000,-41.30,-48.57,-35.74,-51.24,-53.78,-56.75
2020/11/27 02:32:21+0000,-40.94,-51.80,-36.06,-51.34,-53.63,-56.74
2020/11/27 02:33:13+0000,-41.08,-50.93,-35.87,-51.60,-53.26,-56.47
2020/11/27 02:34:05+0000,-41.79,-50.82,-35.95,-51.48,-54.06,-56.89
2020/11/27 02:34:57+0000,-41.13,-50.58,-36.55,-50.69,-54.16,-56.62
2020/11/27 02:35:49+0000,-39.81,-51.15,-36.60,-51.07,-54.34,-56.76
2020/11/27 02:36:41+0000,-40.06,-50.72,-36.11,-51.02,-54.07,-57.52
2020/11/27 02:37:33+0000,-39.93,-51.46,-36.45,-51.05,-53.89,-57.74
2020/11/27 02:38:25+0000,-39.13,-51.48,-36.20,-51.54,-54.22,-57.14
2020/11/27 02:39:17+0000,-39.56,-51.29,-35.96,-51.07,-54.05,-57.20
2020/11/27 02:40:09+0000,-39.92,-51.36,-36.07,-51.54,-54.05,-57.21
2020/11/27 02:41:12+0000,-40.28,-51.09,-36.28,-51.36,-53.87,-57.34
2020/11/27 02:42:04+0000,-39.76,-50.61,-36.65,-51.71,-53.54,-56.77
2020/11/27 02:42:56+0000,-40.25,-51.31,-36.26,-52.09,-54.45,-57.22
2020/11/27 02:43:48+0000,-40.94,-50.44,-35.92,-52.39,-54.12,-56.27
2020/11/27 02:44:40+0000,-39.86,-51.04,-36.49,-53.24,-54.52,-57.09
2020/11/27 02:45:32+0000,-40.19,-51.78,-36.51,-51.95,-54.20,-56.77
2020/11/27 02:46:25+0000,-41.11,-51.37,-36.03,-51.64,-53.55,-56.85
2020/11/27 02:47:17+0000,-40.30,-51.31,-36.51,-51.24,-53.66,-56.90
2020/11/27 02:48:09+0000,-39.40,-51.88,-35.92,-51.56,-53.41,-57.24
2020/11/27 02:49:01+0000,-40.52,-51.82,-35.61,-51.91,-53.50,-57.38
2020/11/27 02:49:53+0000,-40.06,-51.69,-36.15,-51.39,-54.78,-57.16
2020/11/27 02:50:45+0000,-40.78,-51.59,-35.93,-51.60,-53.51,-57.66
2020/11/27 02:51:44+0000,-41.09,-51.53,-35.82,-51.87,-54.25,-56.60
2020/11/27 02:52:36+0000,-39.29,-52.66,-35.94,-51.66,-53.95,-56.53
2020/11/27 02:53:28+0000,-40.90,-51.77,-36.16,-52.01,-53.94,-57.27
2020/11/27 02:54:20+0000,-40.00,-51.07,-35.82,-51.17,-53.59,-57.04
2020/11/27 02:55:12+0000,-39.59,-51.60,-35.91,-51.15,-53.20,-56.78
2020/11/27 02:56:04+0000,-39.91,-51.90,-35.94,-51.91,-54.14,-57.06
2020/11/27 02:56:57+0000,-38.50,-51.35,-35.94,-51.53,-53.46,-57.00
2020/11/27 02:57:49+0000,-38.68,-51.41,-35.59,-51.81,-53.01,-57.22
2020/11/27 02:58:41+0000,-39.06,-51.25,-35.29,-52.16,-53.03,-56.92
2020/11/27 02:59:33+0000,-38.96,-51.38,-35.58,-51.43,-53.67,-56.70
2020/11/27 03:00:25+0000,-39.28,-51.76,-35.77,-51.17,-53.85,-56.39
2020/11/27 03:01:25+0000,-39.80,-51.20,-36.03,-52.22,-53.56,-56.82
2020/11/27 03:02:17+0000,-38.72,-51.98,-35.41,-51.67,-54.09,-56.52
2020/11/27 03:03:09+0000,-38.97,-51.30,-35.18,-51.08,-53.19,-57.28
2020/11/27 03:04:01+0000,-38.60,-50.81,-36.02,-51.80,-53.38,-56.14
2020/11/27 03:04:53+0000,-38.33,-52.11,-35.82,-52.04,-53.66,-56.17
2020/11/27 03:05:45+0000,-40.10,-51.36,-35.19,-51.69,-53.88,-56.64
2020/11/27 03:06:37+0000,-39.97,-51.32,-36.12,-51.49,-53.44,-56.22
2020/11/27 03:07:29+0000,-38.64,-50.95,-35.74,-51.67,-53.79,-57.14
2020/11/27 03:08:21+0000,-39.44,-52.38,-35.48,-51.93,-53.46,-56.65
2020/11/27 03:09:13+0000,-39.52,-52.07,-35.97,-51.49,-53.92,-56.91
2020/11/27 03:10:06+0000,-39.38,-51.12,-35.61,-51.84,-54.29,-56.21
2020/11/27 03:11:07+0000,-39.81,-51.77,-35.98,-51.52,-52.99,-56.98
2020/11/27 03:11:59+0000,-39.69,-51.78,-36.15,-51.68,-53.80,-56.54
2020/11/27 03:12:51+0000,-38.95,-51.32,-35.73,-52.48,-54.11,-56.86
2020/11/27 03:13:43+0000,-39.29,-51.74,-36.60,-51.76,-53.92,-56.49
2020/11/27 03:14:35+0000,-38.83,-52.07,-36.42,-52.12,-53.80,-56.36
2020/11/27 03:15:27+0000,-38.91,-51.71,-36.18,-52.00,-54.02,-56.72
2020/11/27 03:16:19+0000,-39.25,-51.32,-36.34,-51.59,-53.91,-56.99
2020/11/27 03:17:11+0000,-39.04,-50.79,-36.40,-51.95,-54.81,-56.81
2020/11/27 03:18:03+0000,-39.42,-51.25,-35.94,-51.62,-53.84,-56.78
2020/11/27 03:18:55+0000,-40.59,-51.86,-36.35,-51.80,-53.76,-56.76
2020/11/27 03:19:48+0000,-39.74,-51.77,-36.77,-51.39,-53.37,-56.77
2020/11/27 03:20:40+0000,-40.09,-51.56,-36.77,-51.96,-53.85,-56.61
2020/11/27 03:21:42+0000,-39.42,-51.48,-36.67,-52.26,-53.85,-56.44
2020/11/27 03:22:34+0000,-39.48,-51.10,-37.24,-50.90,-54.07,-56.63
2020/11/27 03:23:26+0000,-40.21,-50.03,-36.72,-52.11,-53.22,-56.76
2020/11/27 03:24:18+0000,-40.08,-51.79,-36.20,-51.77,-53.56,-56.80
2020/11/27 03:25:10+0000,-40.55,-51.25,-36.66,-51.61,-53.51,-56.92
2020/11/27 03:26:03+0000,-41.14,-50.82,-36.45,-51.73,-54.33,-57.07
2020/11/27 03:26:55+0000,-41.57,-50.68,-36.58,-51.30,-54.40,-56.65
2020/11/27 03:27:47+0000,-40.11,-50.85,-36.51,-52.00,-54.08,-56.93
2020/11/27 03:28:39+0000,-40.81,-51.27,-36.59,-52.01,-53.38,-56.10
2020/11/27 03:29:31+0000,-41.42,-50.57,-36.60,-52.31,-53.64,-56.77
2020/11/27 03:30:23+0000,-38.87,-50.68,-36.24,-51.59,-53.87,-56.64
2020/11/27 03:31:23+0000,-40.92,-50.86,-36.02,-51.96,-53.75,-56.65
2020/11/27 03:32:15+0000,-40.33,-51.24,-36.96,-52.06,-54.04,-56.99
2020/11/27 03:33:07+0000,-39.92,-51.49,-36.46,-51.87,-53.40,-56.74
2020/11/27 03:33:59+0000,-41.50,-50.26,-36.25,-51.12,-53.23,-57.40
2020/11/27 03:34:51+0000,-40.69,-52.14,-36.25,-51.99,-53.55,-56.44
2020/11/27 03:35:43+0000,-40.35,-51.16,-36.57,-51.17,-53.88,-57.03
2020/11/27 03:36:35+0000,-39.98,-51.50,-37.21,-52.41,-53.57,-56.63
2020/11/27 03:37:27+0000,-39.67,-51.39,-36.99,-52.13,-53.84,-56.82
2020/11/27 03:38:19+0000,-40.36,-50.79,-37.12,-51.47,-54.13,-57.23
2020/11/27 03:39:11+0000,-39.52,-50.73,-36.65,-52.30,-53.84,-56.91
2020/11/27 03:40:03+0000,-39.98,-50.73,-36.45,-51.95,-53.27,-56.70
2020/11/27 03:41:04+0000,-39.66,-51.83,-36.80,-52.13,-53.63,-56.95
2020/11/27 03:41:56+0000,-40.00,-51.31,-36.38,-53.10,-54.63,-56.40
2020/11/27 03:42:48+0000,-39.34,-51.52,-36.70,-53.14,-54.30,-56.72
2020/11/27 03:43:40+0000,-40.63,-51.43,-37.04,-52.51,-54.10,-57.83
2020/11/27 03:44:32+0000,-41.24,-51.55,-36.50,-52.94,-53.59,-56.74
2020/11/27 03:45:24+0000,-41.35,-51.37,-36.86,-52.63,-54.15,-57.01
2020/11/27 03:46:16+0000,-41.04,-51.19,-37.18,-52.15,-54.19,-56.33
2020/11/27 03:47:08+0000,-40.97,-51.94,-36.64,-52.25,-54.07,-56.79
2020/11/27 03:48:00+0000,-40.72,-51.09,-36.05,-51.99,-53.90,-56.78
2020/11/27 03:48:52+0000,-39.51,-51.53,-36.46,-52.70,-54.26,-57.69
2020/11/27 03:49:45+0000,-41.20,-51.69,-36.55,-52.81,-54.56,-56.83
2020/11/27 03:50:37+0000,-39.33,-52.22,-36.42,-52.98,-53.66,-57.34
2020/11/27 03:51:38+0000,-40.39,-52.12,-36.27,-52.53,-54.01,-56.62
2020/11/27 03:52:30+0000,-41.18,-51.81,-35.47,-51.64,-54.19,-56.80
2020/11/27 03:53:22+0000,-41.80,-52.63,-36.23,-53.07,-53.72,-56.80
2020/11/27 03:54:14+0000,-41.12,-51.93,-36.06,-51.95,-54.90,-56.57
2020/11/27 03:55:06+0000,-39.75,-52.07,-35.96,-52.04,-53.69,-56.70
2020/11/27 03:55:58+0000,-40.04,-51.62,-36.63,-51.87,-53.85,-56.43
2020/11/27 03:56:50+0000,-40.87,-51.28,-36.26,-52.54,-53.71,-57.15
2020/11/27 03:57:42+0000,-40.69,-51.93,-36.39,-52.02,-53.80,-56.85
2020/11/27 03:58:34+0000,-41.88,-52.04,-35.86,-52.54,-53.41,-57.21
2020/11/27 03:59:26+0000,-40.17,-51.01,-36.69,-52.48,-53.18,-56.67
2020/11/27 04:00:18+0000,-39.27,-51.89,-36.45,-52.37,-54.80,-56.73
2020/11/27 04:01:19+0000,-41.05,-51.42,-36.64,-52.61,-53.70,-57.09
2020/11/27 04:02:11+0000,-40.56,-51.25,-36.64,-52.82,-54.04,-56.85
2020/11/27 04:03:03+0000,-40.44,-51.85,-35.94,-51.93,-53.93,-57.40
2020/11/27 04:03:55+0000,-40.66,-49.15,-36.38,-52.37,-54.05,-56.74
2020/11/27 04:04:47+0000,-39.68,-51.84,-36.73,-52.44,-54.00,-56.47
2020/11/27 04:05:39+0000,-39.46,-51.73,-37.04,-51.64,-53.91,-56.78
2020/11/27 04:06:31+0000,-41.42,-50.67,-36.60,-52.57,-53.89,-56.88
2020/11/27 04:07:23+0000,-39.64,-50.97,-36.68,-52.69,-54.16,-56.95
2020/11/27 04:08:15+0000,-41.22,-52.18,-35.96,-53.05,-54.05,-56.89
2020/11/27 04:09:07+0000,-40.46,-51.70,-36.38,-52.42,-53.56,-56.50
2020/11/27 04:09:59+0000,-39.92,-51.42,-36.40,-52.36,-53.77,-56.94
2020/11/27 04:10:51+0000,-40.44,-52.48,-36.64,-52.65,-54.06,-56.68
2020/11/27 04:11:51+0000,-40.24,-52.23,-35.85,-53.19,-53.77,-56.65
2020/11/27 04:12:43+0000,-40.18,-52.05,-36.77,-51.85,-54.44,-56.82
2020/11/27 04:13:35+0000,-39.17,-51.97,-36.32,-51.82,-54.24,-56.92
2020/11/27 04:14:27+0000,-39.83,-51.74,-36.65,-52.43,-54.34,-56.97
2020/11/27 04:15:19+0000,-38.96,-52.11,-36.93,-52.32,-54.57,-57.15
2020/11/27 04:16:11+0000,-40.07,-52.16,-36.56,-51.90,-54.89,-56.79
2020/11/27 04:17:03+0000,-40.07,-52.03,-36.75,-51.89,-54.26,-56.85
2020/11/27 04:17:55+0000,-41.05,-52.20,-36.45,-51.85,-54.70,-57.39
2020/11/27 04:18:47+0000,-41.37,-51.50,-36.96,-52.25,-54.27,-56.87
2020/11/27 04:19:39+0000,-40.92,-51.82,-36.23,-51.99,-55.10,-56.93
2020/11/27 04:20:31+0000,-39.98,-50.93,-36.42,-51.83,-54.76,-57.10
2020/11/27 04:21:30+0000,-40.99,-51.88,-36.94,-51.50,-54.75,-56.70
2020/11/27 04:22:23+0000,-40.68,-51.63,-36.24,-51.51,-54.72,-56.94
2020/11/27 04:23:15+0000,-41.00,-49.88,-36.79,-52.48,-54.84,-57.07
2020/11/27 04:24:07+0000,-41.04,-52.71,-36.15,-52.36,-54.71,-56.44
2020/11/27 04:24:59+0000,-41.30,-51.11,-36.18,-52.57,-54.45,-57.21
2020/11/27 04:25:51+0000,-40.44,-51.16,-35.76,-51.24,-54.95,-56.95
2020/11/27 04:26:43+0000,-41.66,-50.67,-36.53,-51.76,-55.02,-56.81
2020/11/27 04:27:35+0000,-41.45,-50.92,-36.14,-52.31,-53.81,-57.35
2020/11/27 04:28:27+0000,-40.16,-51.06,-36.95,-51.71,-53.72,-57.38
2020/11/27 04:29:19+0000,-39.73,-50.65,-36.27,-52.21,-53.61,-56.98
2020/11/27 04:30:11+0000,-40.51,-50.80,-36.63,-52.85,-54.15,-56.49
2020/11/27 04:31:11+0000,-41.65,-49.54,-36.26,-52.14,-54.35,-57.51
2020/11/27 04:32:04+0000,-41.08,-51.23,-36.13,-51.86,-53.72,-56.54
2020/11/27 04:32:56+0000,-41.52,-49.69,-36.03,-52.21,-53.09,-56.93
2020/11/27 04:33:48+0000,-41.74,-50.85,-36.15,-51.96,-54.25,-56.95
2020/11/27 04:34:40+0000,-41.76,-50.14,-36.17,-52.23,-54.10,-56.87
2020/11/27 04:35:32+0000,-41.61,-51.09,-36.07,-51.98,-53.81,-56.68
2020/11/27 04:36:24+0000,-41.45,-50.77,-35.76,-52.06,-53.52,-57.02
2020/11/27 04:37:16+0000,-42.11,-52.09,-35.67,-51.75,-53.61,-56.25
2020/11/27 04:38:08+0000,-40.47,-52.17,-35.82,-51.96,-54.03,-56.53
2020/11/27 04:39:00+0000,-42.06,-50.69,-36.02,-52.09,-54.48,-56.80
2020/11/27 04:39:52+0000,-41.03,-51.34,-36.65,-52.04,-53.70,-56.66
2020/11/27 04:40:44+0000,-40.96,-51.06,-36.12,-52.72,-53.90,-56.14
2020/11/27 04:41:45+0000,-41.44,-51.25,-36.53,-52.27,-53.92,-56.59
2020/11/27 04:42:37+0000,-41.04,-50.77,-36.95,-52.40,-53.56,-56.51
2020/11/27 04:43:29+0000,-40.73,-51.13,-36.53,-52.47,-54.84,-56.85
2020/11/27 04:44:21+0000,-40.53,-50.89,-36.94,-52.53,-54.10,-56.83